Vertical_Velocity
2 4 -2 -6 -4 -1 -1 3 -1 -1 1 3 -3 -1 -3 -1 -2 -3 -6 -3 0 -2 5 14 2 34 7 17 2 -11 -5 2 9 7 -1 0 -2 2 1 -0 -1 -1 -4 2
7 -2 -6 1 2 2 1 1 -2 3 3 2 1 -2 -1 0 -1 -2 -1 -3 -0 3 7 5 7 -13 44 -3 7 23 -7 -5 0 10 8 4 4 -2 7 7 -1 4 2 2
2 -6 0 3 1 2 -0 1 -0 -8 3 2 2 4 1 3 -2 1 1 -3 -1 3 -3 -6 -4 -28 -9 -2 1 1 3 -4 4 21 3 15 -2 3 3 3 -2 4 -0 6
-1 -3 -0 1 -1 -0 3 -3 -0 0 1 1 5 3 0 -1 -3 0 -2 -2 0 6 -1 0 6 2 1 3 -38 -29 -9 -24 -11 -22 4 -2 16 8 -5 11 3 2 -0 -2
5 1 1 1 -6 0 -2 -2 -4 -2 -0 -4 -3 -4 -2 -1 -1 0 -2 -1 2 3 -2 -5 -1 2 -2 2 -8 6 8 5 2 -16 -12 -14 -27 -15 -2 0 6 -15 -4 3
1 -1 2 -1 -1 -3 0 2 2 -0 -1 -5 1 -5 3 1 2 -0 1 4 -1 -0 -3 4 2 3 -3 11 -7 -2 6 -0 6 9 -3 -9 -0 -4 8 -1 -10 -3 -3 -5
-0 2 -1 2 3 5 5 4 1 -0 -1 3 -0 2 5 0 1 2 1 -1 5 2 1 7 2 6 2 -2 3 7 5 -3 7 1 7 -3 4 16 2 -9 -1 0 1 -3
-0 3 -0 -0 0 -3 0 2 2 -1 -1 2 -0 1 -2 4 3 -4 -4 -2 7 5 8 7 3 5 2 3 5 6 4 1 2 4 3 1 5 0 2 2 -2 2 1 0
1 2 -4 -2 1 3 1 -1 1 -2 0 -5 2 7 1 -1 -0 0 3 1 2 -1 -1 3 0 0 0 -1 -0 4 -0 -3 -1 1 0 2 7 3 4 10 1 3 3 0
4 1 2 -3 1 3 2 2 7 -0 -0 1 3 2 7 -2 0 1 -0 2 4 6 -2 -2 -3 -0 1 2 1 -0 1 1 1 3 3 1 -2 1 0 -2 -3 -1 -2 -0
1 0 6 2 -1 4 -2 -1 -2 2 2 -2 -1 7 4 1 1 2 2 1 2 1 1 2 -1 2 -2 0 -1 1 -1 -1 1 0 1 2 1 1 0 -0 3 3 0 -1
2 -0 -0 4 -0 1 2 2 1 2 4 1 -3 9 1 1 1 0 2 1 3 2 3 5 5 0 -0 -2 0 -0 0 -1 0 2 -1 -2 -1 1 -1 -1 2 0 2 -0
2 1 1 7 9 2 -0 -0 0 0 -0 2 -2 9 1 -0 -1 0 1 3 3 0 -1 1 -1 1 4 1 1 4 6 6 6 5 5 2 -1 -1 -3 2 -1 2 1 5
-1 -0 5 2 5 2 -1 -1 -1 1 -2 2 4 6 2 0 1 0 -1 -1 -2 -2 0 -2 -6 -5 -4 -2 -2 -2 -5 -1 2 3 1 5 2 1 0 1 -1 1 -0 -0
-0 -1 -2 2 1 -0 1 1 0 -2 1 -3 5 -1 5 3 3 3 5 3 2 2 -0 1 3 0 -4 -5 -1 0 3 2 -3 -1 0 1 -1 5 6 2 4 2 2 2
0 2 -0 1 -0 -1 -0 0 -0 0 0 -0 -0 4 2 2 1 -2 0 -2 0 1 1 0 -3 -4 4 6 -3 -5 1 2 0 -1 2 -0 2 3 3 3 3 0 1 2
-1 -1 -0 1 0 0 1 3 1 1 -0 3 1 6 1 -1 -0 1 1 -0 -1 -2 -4 -4 -3 -2 -1 -7 -7 6 3 -2 -3 -3 -1 -0 1 -1 -3 -3 2 0 -0 3
-0 -1 0 1 1 2 8 -0 1 -2 1 0 -0 1 1 1 -1 2 0 1 1 0 -0 -1 0 -2 1 2 2 -7 -9 -4 3 2 -3 -4 -5 -2 -0 3 4 3 3 0
0 -0 -0 2 0 1 1 1 1 2 3 0 -1 0 -0 -2 -1 -1 0 1 -3 -2 -1 0 4 3 -3 -4 1 3 2 -0 -4 -11 -10 1 5 -1 -3 0 -1 2 0 0
-1 -1 1 0 0 -0 3 1 -0 0 2 -1 -0 0 1 -2 0 -3 4 4 3 3 -0 -3 -5 -8 -5 -3 4 1 -2 -3 3 0 2 -3 -3 4 -1 1 2 4 7 2
0 -1 0 0 -0 -1 -0 -0 -1 6 7 -1 -2 -1 -1 1 3 -2 -7 -15 -8 -5 -10 -7 -2 2 -1 -4 -5 -4 -1 0 2 4 5 3 -1 -0 5 2 3 0 4 4
-0 -0 -0 1 2 -1 -2 3 5 2 1 0 1 0 -1 -2 -1 -3 -2 -4 -2 -5 -8 -5 -5 -5 -3 1 4 -2 -1 6 -2 1 0 -2 2 3 3 4 -1 1 -2 2
3 1 3 2 1 1 -1 1 -1 -2 -2 -1 -1 1 1 -1 -1 -4 -3 2 2 1 3 2 1 -5 -4 -3 6 4 -5 1 1 -0 -2 -0 -3 2 1 -2 1 1 -0 1
0 -1 1 3 3 -2 -0 -0 0 -1 1 -3 -3 -3 -2 -1 -4 -1 2 -1 -3 -3 -5 1 1 1 -5 1 -3 -0 -2 9 1 2 2 4 -4 -0 1 7 2 5 -4 -3
1 2 -2 -3 1 0 -1 -0 -1 0 -2 -1 0 -0 -1 -2 -0 4 -3 -3 -4 -2 0 1 -2 -1 -7 0 -3 -2 1 2 2 4 4 5 -2 4 3 4 1 -1 6 3
-5 -6 -3 -5 -3 -2 -2 2 -2 -2 -2 -1 1 -0 -1 -1 0 -5 -3 -0 -2 0 -2 -6 -3 -2 -4 -2 -6 -3 6 11 4 1 4 2 -1 3 2 3 5 4 5 4
Height
1479 1481 1472 1470 1467 1462 1463 1455 1449 1446 1450 1457 1459 1460 1461 1462 1462 1465 1465 1465 1461 1458 1461 1465 1468 1472 1478 1483 1485 1490 1497 1502 1505 1508 1511 1515 1517 1519 1522 1527 1529 1532 1534 1536
1478 1471 1467 1464 1463 1463 1471 1457 1446 1443 1448 1451 1459 1457 1457 1457 1459 1463 1467 1461 1457 1455 1458 1461 1466 1467 1470 1478 1486 1492 1496 1499 1500 1506 1507 1512 1515 1516 1520 1524 1527 1529 1531 1534
1470 1463 1466 1464 1464 1465 1467 1454 1442 1441 1449 1450 1452 1455 1454 1453 1456 1460 1459 1456 1456 1457 1460 1463 1467 1470 1477 1474 1479 1488 1491 1496 1497 1499 1504 1506 1512 1516 1517 1520 1521 1524 1526 1528
1466 1464 1463 1463 1459 1460 1455 1451 1442 1441 1438 1442 1452 1448 1446 1451 1454 1452 1453 1454 1457 1456 1461 1466 1469 1472 1471 1476 1481 1488 1490 1493 1494 1498 1501 1510 1513 1511 1515 1516 1515 1517 1520 1525
1461 1461 1462 1463 1456 1456 1442 1447 1443 1439 1438 1440 1445 1440 1455 1452 1452 1454 1453 1454 1459 1459 1463 1467 1471 1472 1475 1478 1483 1486 1489 1487 1493 1498 1506 1506 1505 1506 1508 1510 1508 1512 1516 1519
1464 1462 1461 1453 1449 1452 1447 1451 1448 1440 1439 1446 1449 1447 1461 1461 1455 1454 1455 1455 1457 1458 1462 1466 1468 1470 1473 1476 1479 1481 1483 1483 1490 1496 1496 1498 1501 1502 1503 1505 1507 1509 1510 1511
1462 1459 1457 1455 1450 1450 1446 1446 1450 1450 1450 1458 1455 1450 1463 1454 1453 1452 1449 1452 1456 1458 1464 1466 1469 1474 1473 1477 1479 1479 1479 1482 1485 1489 1494 1495 1495 1497 1496 1496 1501 1501 1502 1504
1452 1453 1455 1455 1451 1445 1445 1444 1441 1447 1446 1452 1452 1464 1466 1457 1455 1457 1455 1457 1456 1457 1462 1463 1467 1470 1472 1475 1475 1477 1477 1480 1485 1485 1488 1490 1491 1490 1494 1492 1494 1495 1497 1498
1447 1458 1459 1455 1452 1451 1443 1446 1449 1446 1448 1445 1462 1465 1461 1458 1456 1458 1460 1460 1455 1455 1457 1462 1465 1468 1471 1473 1474 1475 1475 1480 1482 1483 1485 1486 1486 1487 1488 1487 1489 1490 1492 1493
1455 1455 1464 1459 1452 1451 1446 1450 1445 1445 1443 1454 1461 1456 1461 1461 1463 1461 1459 1457 1460 1459 1461 1465 1468 1470 1470 1471 1470 1471 1473 1476 1478 1479 1480 1479 1480 1481 1482 1483 1485 1485 1487 1489
1455 1449 1464 1460 1457 1457 1449 1445 1449 1448 1448 1437 1449 1463 1468 1468 1468 1465 1465 1465 1467 1470 1472 1471 1470 1469 1469 1469 1468 1468 1469 1471 1474 1474 1474 1474 1475 1477 1478 1479 1479 1480 1481 1484
1459 1456 1462 1463 1464 1463 1460 1457 1454 1442 1453 1460 1440 1467 1470 1468 1468 1469 1471 1473 1474 1471 1468 1468 1468 1466 1468 1468 1468 1468 1468 1468 1470 1469 1469 1470 1470 1472 1472 1475 1475 1475 1475 1480
1461 1460 1458 1459 1463 1462 1459 1461 1459 1458 1455 1462 1444 1467 1472 1471 1470 1470 1471 1472 1474 1474 1472 1470 1468 1469 1470 1472 1472 1470 1469 1468 1466 1465 1466 1465 1466 1468 1469 1470 1472 1471 1473 1476
1465 1467 1464 1457 1467 1471 1465 1461 1459 1459 1454 1454 1454 1468 1473 1474 1476 1477 1477 1477 1474 1472 1473 1474 1475 1474 1474 1472 1470 1469 1466 1464 1461 1463 1464 1464 1464 1465 1465 1466 1467 1468 1470 1473
1466 1474 1479 1474 1472 1472 1468 1468 1466 1471 1468 1461 1470 1471 1481 1480 1479 1478 1476 1475 1475 1473 1473 1474 1476 1476 1474 1470 1469 1467 1465 1462 1461 1462 1462 1460 1462 1462 1461 1461 1463 1465 1467 1468
1470 1476 1479 1476 1475 1473 1472 1472 1473 1472 1472 1470 1472 1478 1484 1484 1483 1481 1479 1479 1478 1478 1479 1479 1477 1471 1469 1469 1466 1462 1460 1460 1459 1458 1458 1457 1456 1457 1459 1460 1462 1462 1465 1466
1470 1472 1471 1474 1477 1472 1469 1477 1475 1476 1476 1474 1469 1479 1481 1481 1483 1483 1484 1484 1484 1482 1479 1476 1475 1473 1471 1467 1463 1459 1459 1457 1456 1455 1454 1453 1452 1454 1455 1457 1456 1456 1458 1460
1471 1473 1475 1472 1473 1469 1476 1479 1479 1477 1481 1480 1482 1485 1487 1488 1485 1483 1483 1483 1483 1481 1478 1475 1472 1469 1466 1463 1461 1456 1453 1451 1449 1447 1446 1446 1447 1448 1449 1450 1450 1451 1453 1454
1475 1473 1476 1471 1470 1477 1476 1478 1478 1477 1481 1486 1486 1487 1487 1487 1484 1482 1482 1481 1480 1476 1473 1469 1466 1463 1458 1455 1453 1450 1448 1446 1443 1441 1440 1440 1439 1438 1440 1441 1443 1444 1446 1447
1479 1477 1473 1479 1474 1468 1471 1477 1479 1480 1473 1485 1485 1485 1485 1484 1476 1475 1480 1478 1474 1471 1467 1462 1458 1455 1452 1448 1445 1442 1439 1436 1434 1434 1431 1429 1429 1429 1429 1431 1434 1436 1437 1440
1477 1477 1475 1475 1474 1470 1473 1477 1480 1478 1476 1482 1484 1484 1484 1483 1482 1480 1478 1473 1469 1464 1460 1456 1452 1449 1445 1442 1438 1433 1429 1425 1424 1424 1421 1419 1418 1417 1417 1420 1424 1427 1431 1433
1475 1475 1474 1479 1476 1471 1473 1478 1475 1473 1478 1480 1481 1481 1480 1479 1477 1475 1470 1466 1462 1458 1455 1451 1447 1443 1439 1435 1430 1424 1420 1419 1415 1412 1410 1409 1408 1407 1407 1407 1411 1416 1422 1426
1477 1474 1470 1472 1465 1471 1471 1472 1472 1474 1475 1477 1477 1477 1476 1474 1473 1469 1465 1461 1458 1454 1450 1444 1439 1432 1428 1425 1422 1416 1410 1410 1406 1402 1400 1399 1399 1398 1398 1399 1401 1407 1412 1417
1476 1478 1474 1474 1467 1470 1471 1471 1472 1472 1474 1475 1475 1473 1472 1471 1468 1464 1460 1458 1453 1449 1442 1437 1431 1424 1417 1413 1410 1404 1398 1398 1396 1392 1390 1389 1389 1389 1388 1391 1394 1398 1402 1408
1471 1476 1470 1468 1467 1470 1469 1469 1470 1472 1473 1472 1471 1471 1471 1468 1463 1461 1458 1454 1449 1442 1436 1430 1424 1418 1412 1404 1396 1389 1385 1384 1383 1382 1380 1379 1379 1379 1380 1383 1385 1389 1395 1399
1464 1460 1461 1454 1455 1458 1460 1463 1467 1470 1470 1470 1469 1469 1466 1462 1460 1457 1452 1448 1442 1437 1432 1426 1420 1412 1405 1398 1388 1380 1377 1375 1375 1373 1372 1371 1371 1371 1373 1376 1379 1383 1389 1394